SCP
0 0 0 0 0 0 0 0 0 0 0 0 0 0 0 0 0 0 0 0 0 0 0 0 0 1 1 1 0 0 0 0 0 0 0 0 0 0 0 0 0 0 0 0
0 0 0 0 0 0 0 0 0 0 0 0 0 0 0 0 0 0 0 0 0 0 0 0 0 1 0 0 0 0 0 0 0 0 0 0 0 0 0 0 0 0 0 0
0 0 0 0 0 0 0 0 0 0 0 0 0 0 0 0 0 0 0 0 0 0 0 0 0 0 0 0 0 0 0 0 0 0 0 0 0 0 0 0 0 0 0 0
0 0 0 0 0 0 0 0 0 0 0 0 0 0 0 0 0 0 0 0 0 0 0 0 0 0 0 0 0 0 0 0 0 0 0 0 0 0 0 0 0 0 0 0
0 0 0 0 0 0 0 0 0 0 0 0 0 0 0 0 0 0 0 0 0 0 0 0 0 0 0 0 0 0 0 0 0 0 0 0 0 0 0 0 0 0 0 0
0 0 0 0 0 0 0 0 0 0 0 0 0 0 0 0 0 0 0 0 0 0 0 0 0 0 0 0 0 0 0 0 0 0 0 0 0 0 0 0 0 0 0 0
0 0 0 0 0 0 0 0 0 0 0 0 0 0 0 -0 0 0 0 0 0 0 0 0 0 0 0 0 0 0 0 0 0 0 0 0 0 0 0 0 0 0 0 0
0 0 0 0 0 0 0 0 0 0 0 0 0 0 0 -0 0 0 0 0 0 0 0 0 0 0 0 0 0 0 0 0 0 0 0 0 0 0 0 0 0 0 0 0
0 0 0 0 0 0 0 0 0 0 0 0 0 0 0 0 0 0 0 0 0 0 0 0 0 0 0 0 0 0 0 0 0 0 0 0 0 0 0 0 0 0 0 0
0 0 0 0 0 0 0 0 0 0 0 -0 -0 -0 -0 -0 0 0 0 0 0 0 0 0 0 0 0 0 0 0 0 0 0 0 0 0 0 0 0 0 0 0 0 0
0 0 0 0 0 0 0 0 0 0 0 -0 -0 -0 -0 -0 -0 0 0 0 0 0 0 0 0 0 0 0 0 0 0 0 0 0 0 0 0 0 0 0 0 0 0 0
0 0 0 0 0 0 0 0 0 0 0 0 -0 -0 -0 -0 -0 0 0 0 0 0 0 0 0 0 0 0 0 0 0 0 0 0 0 0 0 0 0 0 0 0 0 0
0 0 0 0 0 0 0 0 0 0 0 0 -0 -0 -0 0 0 0 0 0 0 0 0 0 0 0 0 0 0 0 0 0 0 0 0 0 0 0 0 0 0 0 0 0
0 0 0 0 0 0 0 0 0 0 0 -0 -0 0 0 0 0 0 0 0 0 0 0 0 0 0 0 0 0 0 0 0 0 0 0 0 0 0 0 0 0 0 0 0
-0 0 0 0 0 0 0 0 0 0 0 0 0 -0 0 0 0 0 0 0 0 0 0 0 0 0 0 0 0 0 0 0 0 0 0 0 0 0 0 0 0 0 0 0
0 0 -0 -0 -0 0 -0 0 0 0 0 0 0 0 0 0 0 0 0 0 0 0 0 0 0 0 0 0 0 0 0 0 0 0 0 0 0 0 0 0 0 0 0 0
-0 0 0 -0 -0 -0 -0 -0 -0 -0 0 0 0 0 0 0 0 0 0 0 0 0 0 0 0 0 0 0 0 0 0 0 0 0 0 0 0 0 0 0 0 0 0 0
-0 -0 -0 -0 -0 -0 -0 -0 0 -0 0 0 0 0 0 0 0 0 0 0 0 0 0 0 0 0 0 0 0 0 0 0 0 0 0 0 0 0 0 0 0 0 0 0
-0 -0 -0 -0 -0 -0 0 0 0 0 0 0 0 0 0 0 0 0 0 0 0 0 0 0 0 0 0 0 0 0 0 0 0 0 0 0 0 0 0 0 0 0 0 0
0 0 -0 -0 -0 -0 0 0 0 0 0 0 0 0 0 0 0 0 0 0 0 0 0 0 0 0 0 0 0 0 0 0 0 0 0 0 0 0 0 0 0 0 0 0
0 0 0 0 0 0 0 0 0 0 0 0 0 0 0 0 0 0 0 0 0 0 0 0 0 0 0 0 0 0 0 0 0 0 0 0 0 0 0 0 0 0 0 0
0 0 0 0 0 0 0 0 0 0 0 0 0 0 0 0 0 0 0 0 0 0 0 0 0 0 0 0 0 0 0 0 0 0 0 0 0 0 0 0 0 0 0 0
0 0 0 0 0 0 0 0 0 0 0 0 0 0 0 0 0 0 0 0 0 0 0 0 0 0 0 0 0 0 0 0 0 0 0 0 0 0 0 0 0 0 0 0
0 0 0 0 0 0 0 0 0 0 0 0 0 0 0 0 0 0 0 0 0 0 0 0 0 0 0 0 0 0 0 0 0 0 0 0 0 0 0 0 0 0 0 0
0 0 0 0 0 0 0 0 0 0 0 0 0 0 0 0 0 0 0 0 0 0 0 0 0 0 0 0 0 0 0 0 0 0 0 0 0 0 0 0 0 0 0 0
0 0 0 0 0 0 0 0 0 0 0 0 0 0 0 0 0 0 0 0 0 0 0 0 0 0 0 0 0 0 0 0 0 0 0 0 0 0 0 0 0 0 0 0
0 0 0 0 0 0 0 0 0 0 0 0 0 0 0 0 0 0 0 0 0 0 0 0 0 0 0 0 0 0 0 0 0 0 0 0 0 0 0 0 0 0 0 0
Wind_Speed_500mb
9 10 15 6 8 13 8 3 11 8 3 7 5 11 19 16 13 19 35 44 54 53 57 64 68 74 74 71 52 62 54 46 46 45 45 43 42 41 35 37 30 26 28 28
2 10 20 11 21 8 9 8 2 6 8 6 11 20 21 17 14 5 38 46 46 55 62 64 68 69 73 72 65 65 54 47 49 48 47 47 46 43 37 38 37 33 32 28
6 5 7 9 9 11 1 8 4 3 3 3 13 24 20 18 14 7 15 39 49 57 60 63 75 78 85 83 70 61 54 48 47 47 55 51 49 41 42 39 41 40 38 27
5 8 4 6 2 4 7 9 12 11 6 14 20 26 24 20 13 16 23 20 23 35 38 49 55 71 81 65 57 47 45 57 40 38 37 50 53 50 38 44 44 44 46 32
5 3 9 10 5 2 7 3 4 9 18 19 26 22 22 18 16 17 9 14 19 17 16 32 32 44 50 57 57 38 43 47 43 44 44 32 31 40 43 44 42 42 40 47
4 6 11 11 2 9 9 7 7 4 12 22 14 5 4 6 9 11 8 15 20 21 23 14 13 13 24 29 24 35 35 37 32 24 21 23 28 28 25 27 38 29 31 49
5 5 9 10 9 6 2 12 14 12 8 4 4 5 14 2 9 14 14 10 9 20 32 42 32 23 32 29 45 34 33 18 16 21 25 29 25 24 26 28 33 39 44 44
3 3 8 4 6 13 11 9 21 20 18 19 31 24 15 19 15 15 18 20 16 23 32 37 26 27 28 32 32 26 31 46 30 28 30 25 21 20 22 22 25 27 30 32
13 9 11 8 9 6 14 16 12 19 22 25 28 25 20 21 21 22 20 21 20 19 19 19 21 27 41 34 29 29 24 27 33 31 29 23 21 19 19 17 13 15 19 20
2 5 4 2 20 24 19 9 16 19 23 33 35 26 26 24 23 22 22 20 20 19 21 24 21 17 17 23 26 28 26 22 20 24 27 25 22 20 24 24 23 22 24 21
5 6 4 7 18 30 24 19 26 25 22 25 29 31 28 27 22 21 20 19 19 19 19 21 19 17 19 16 15 13 15 19 20 21 22 17 25 30 32 29 24 24 21 17
10 27 12 21 26 21 19 22 17 24 27 22 16 26 26 24 21 17 20 20 18 15 16 19 18 18 16 15 14 13 14 11 11 14 12 14 18 21 19 16 17 25 36 30
10 44 30 33 28 19 18 22 15 18 22 25 18 15 18 20 19 18 17 20 19 15 15 14 13 12 11 12 11 11 10 10 9 4 5 8 11 13 16 19 16 14 12 11
22 50 36 38 39 32 26 27 22 19 20 20 22 14 10 11 9 8 7 12 14 19 12 7 6 8 10 9 9 10 10 9 9 11 7 5 4 6 7 6 12 18 24 23
46 50 53 42 38 35 32 33 31 27 23 17 13 16 14 6 13 12 12 7 10 6 6 7 7 6 5 5 6 9 8 10 11 9 8 11 12 10 9 10 12 9 8 12
52 34 41 43 41 35 29 21 20 26 28 23 20 16 13 9 3 11 14 13 10 7 4 5 10 14 5 3 7 9 13 17 18 18 18 20 19 18 17 17 18 16 14 16
43 39 40 42 45 44 32 24 22 17 20 25 22 19 17 11 9 8 11 13 14 9 8 5 7 17 14 15 16 18 20 20 20 20 21 19 20 19 20 22 21 21 18 16
52 45 42 37 52 43 33 31 23 20 19 26 28 27 22 21 20 15 16 15 15 21 23 20 18 22 23 22 20 20 21 22 22 24 27 28 28 29 29 29 29 23 25 20
54 40 33 41 48 39 39 39 32 26 25 23 21 21 19 22 32 30 25 26 24 27 26 28 28 27 25 22 23 24 25 23 21 20 21 20 22 27 27 27 24 23 30 30
53 42 41 41 43 42 45 45 42 38 32 28 24 19 16 15 16 23 37 43 34 25 23 18 25 30 28 31 34 33 31 30 27 26 24 25 21 19 28 31 30 28 26 30
52 46 48 48 44 42 45 48 44 38 31 22 17 17 18 15 13 12 13 16 19 18 23 27 33 34 37 37 39 37 37 34 33 32 33 32 30 24 23 30 34 28 27 32
48 51 54 47 41 40 47 46 41 34 30 25 20 16 13 10 9 10 13 16 16 16 15 14 18 22 25 29 34 39 40 45 51 47 44 43 43 38 34 34 34 32 27 33
56 54 47 40 37 43 49 45 38 31 27 24 19 16 12 10 12 14 15 16 12 6 2 5 9 14 19 25 29 34 38 42 43 43 44 49 50 50 44 45 46 40 32 34
53 50 40 32 36 43 49 46 38 32 26 23 21 15 12 13 10 17 15 12 3 3 4 2 9 19 21 24 30 38 44 49 50 49 49 49 52 53 53 49 47 52 48 38
51 46 44 43 44 44 44 46 46 42 38 33 24 14 8 7 6 17 8 5 4 1 9 8 15 22 20 23 33 36 37 45 53 56 59 61 59 55 54 54 51 49 56 50
50 50 48 49 48 49 53 56 56 53 48 39 34 27 18 16 17 11 12 10 5 10 10 9 17 22 25 29 41 53 42 39 41 46 51 56 58 57 59 61 61 55 55 59
45 51 56 62 65 65 66 68 62 60 49 46 38 26 21 14 19 18 18 14 8 10 13 19 21 26 26 30 42 52 43 33 35 38 40 43 45 50 48 48 54 56 57 63
Wind_Direction_500mb
235 236 113 67 8 19 73 67 183 299 171 55 54 109 80 74 83 171 201 201 205 202 206 212 214 222 224 219 225 217 217 213 218 217 221 222 220 217 220 221 228 235 239 248
148 21 104 84 18 8 65 2 168 28 82 95 73 96 76 45 33 129 188 203 203 206 214 221 222 222 227 216 204 208 211 215 213 217 227 223 222 226 232 232 229 228 236 244
274 319 273 53 340 340 172 23 269 202 298 67 73 69 54 55 44 357 188 187 201 209 207 210 211 219 216 205 203 205 207 211 221 227 232 228 226 226 241 236 237 243 241 237
247 5 205 296 57 281 54 49 59 79 87 97 91 75 59 54 68 100 117 153 194 201 199 202 214 213 209 198 192 194 217 219 227 235 246 242 229 242 255 234 241 244 237 237
113 51 317 305 288 188 201 257 271 168 140 116 117 82 40 44 53 69 120 159 143 158 156 178 175 195 210 201 192 223 230 216 232 235 242 241 247 252 252 249 236 228 232 224
116 152 205 228 262 205 178 354 279 239 174 161 162 62 328 6 75 89 111 163 186 182 201 187 206 168 252 204 232 227 225 224 225 230 233 248 244 248 250 255 242 224 235 224
156 168 271 254 230 181 160 226 164 190 129 108 98 136 146 138 120 120 124 130 166 201 187 176 195 189 209 211 215 213 223 221 251 265 267 261 249 243 247 243 239 231 234 242
102 107 247 205 169 171 223 156 141 139 104 83 116 118 116 100 96 105 105 112 145 181 191 194 196 183 206 186 185 199 193 212 253 244 240 240 235 239 237 231 231 234 237 241
176 224 287 300 250 135 166 195 155 152 132 150 141 136 128 119 113 111 107 108 114 127 140 131 142 178 187 186 198 195 195 206 228 225 249 243 236 229 220 211 214 222 221 223
93 259 251 316 107 97 106 173 168 146 150 152 141 142 135 130 129 120 110 109 110 113 115 116 120 129 169 167 172 183 188 202 205 220 219 219 232 225 217 213 225 232 230 222
271 252 211 227 144 113 114 111 138 131 132 138 139 141 133 133 127 112 98 93 94 103 111 121 129 138 142 146 150 157 178 186 189 203 202 221 225 218 220 219 217 211 198 193
212 187 166 180 140 132 125 121 141 146 128 126 128 134 136 137 122 102 93 83 79 98 112 117 122 126 129 138 151 167 187 187 216 225 227 242 252 261 254 237 219 219 211 201
195 183 183 156 148 160 140 134 143 152 141 115 118 139 153 154 138 114 96 94 86 84 89 103 122 126 130 131 136 142 157 174 191 180 252 266 270 270 275 277 274 249 235 213
207 160 153 165 158 144 153 143 148 155 139 104 91 137 165 168 158 158 168 144 108 83 81 80 113 132 150 165 170 169 179 194 196 213 214 238 303 337 342 317 282 269 268 261
175 182 181 164 154 150 145 151 163 166 162 161 162 132 148 170 217 203 205 215 177 118 123 164 180 177 163 155 199 206 200 211 228 238 242 234 238 250 277 304 319 316 318 302
174 175 172 172 169 168 171 165 167 183 188 203 198 182 171 158 163 208 208 220 229 243 250 191 182 168 130 319 287 262 228 231 239 246 247 247 249 254 260 276 289 280 296 322
166 165 178 183 180 173 178 186 203 197 190 209 208 205 209 202 213 222 221 238 250 251 266 277 253 233 275 282 273 255 243 243 244 243 239 242 251 259 262 259 266 262 270 302
197 201 201 209 188 187 191 192 199 207 196 193 204 210 214 221 230 244 238 240 257 251 248 252 255 255 270 278 270 266 264 262 255 247 247 251 256 261 267 271 266 254 241 257
201 201 197 189 190 192 192 195 199 201 191 188 194 203 216 232 240 236 231 243 247 263 266 267 270 269 267 267 274 268 270 268 258 245 243 252 260 254 259 266 264 256 241 245
193 192 193 192 196 200 200 198 189 183 182 183 188 198 211 221 231 235 240 247 251 262 255 251 265 263 266 270 270 273 269 264 264 255 248 250 257 269 259 259 265 259 246 238
189 196 199 195 193 197 203 192 187 182 178 191 206 200 196 199 198 210 223 241 247 254 254 258 258 263 266 263 266 261 270 265 263 265 262 260 256 256 268 256 253 254 256 245
194 188 185 187 188 186 191 192 194 194 192 194 196 201 210 217 219 224 229 230 238 231 234 253 265 266 265 263 268 271 260 271 271 261 259 262 263 260 253 259 257 253 262 242
188 187 192 195 198 188 185 192 200 210 209 209 212 206 217 252 260 255 225 201 190 182 213 275 281 285 287 287 285 278 272 271 271 267 261 257 258 256 257 253 252 255 253 246
195 195 201 201 193 193 191 195 204 208 216 212 210 212 247 263 210 181 175 169 163 310 305 292 342 326 314 303 292 280 272 266 265 263 263 265 252 255 256 251 249 246 246 245
205 207 207 202 202 209 210 207 203 204 204 200 195 200 159 170 188 155 143 114 117 66 351 342 349 352 341 338 345 330 299 278 267 264 263 261 260 256 255 252 250 247 243 241
212 217 223 225 228 225 215 211 211 204 199 188 174 160 161 165 163 185 175 178 229 288 303 333 332 328 331 340 345 345 325 303 286 277 270 266 262 260 258 252 249 245 241 237
224 228 230 229 227 228 222 216 208 194 183 172 170 167 170 188 212 205 208 208 273 296 293 300 304 317 320 334 345 349 343 321 308 301 283 277 267 251 253 254 250 247 237 233
Wind_Speed_850mb
9 10 15 6 8 13 8 3 11 8 3 7 5 11 19 16 13 19 35 44 54 53 57 64 68 74 74 71 52 62 54 46 46 45 45 43 42 41 35 37 30 26 28 28
2 10 20 11 21 8 9 8 2 6 8 6 11 20 21 17 14 5 38 46 46 55 62 64 68 69 73 72 65 65 54 47 49 48 47 47 46 43 37 38 37 33 32 28
6 5 7 9 9 11 1 8 4 3 3 3 13 24 20 18 14 7 15 39 49 57 60 63 75 78 85 83 70 61 54 48 47 47 55 51 49 41 42 39 41 40 38 27
5 8 4 6 2 4 7 9 12 11 6 14 20 26 24 20 13 16 23 20 23 35 38 49 55 71 81 65 57 47 45 57 40 38 37 50 53 50 38 44 44 44 46 32
5 3 9 10 5 2 7 3 4 9 18 19 26 22 22 18 16 17 9 14 19 17 16 32 32 44 50 57 57 38 43 47 43 44 44 32 31 40 43 44 42 42 40 47
4 6 11 11 2 9 9 7 7 4 12 22 14 5 4 6 9 11 8 15 20 21 23 14 13 13 24 29 24 35 35 37 32 24 21 23 28 28 25 27 38 29 31 49
5 5 9 10 9 6 2 12 14 12 8 4 4 5 14 2 9 14 14 10 9 20 32 42 32 23 32 29 45 34 33 18 16 21 25 29 25 24 26 28 33 39 44 44
3 3 8 4 6 13 11 9 21 20 18 19 31 24 15 19 15 15 18 20 16 23 32 37 26 27 28 32 32 26 31 46 30 28 30 25 21 20 22 22 25 27 30 32
13 9 11 8 9 6 14 16 12 19 22 25 28 25 20 21 21 22 20 21 20 19 19 19 21 27 41 34 29 29 24 27 33 31 29 23 21 19 19 17 13 15 19 20
2 5 4 2 20 24 19 9 16 19 23 33 35 26 26 24 23 22 22 20 20 19 21 24 21 17 17 23 26 28 26 22 20 24 27 25 22 20 24 24 23 22 24 21
5 6 4 7 18 30 24 19 26 25 22 25 29 31 28 27 22 21 20 19 19 19 19 21 19 17 19 16 15 13 15 19 20 21 22 17 25 30 32 29 24 24 21 17
10 27 12 21 26 21 19 22 17 24 27 22 16 26 26 24 21 17 20 20 18 15 16 19 18 18 16 15 14 13 14 11 11 14 12 14 18 21 19 16 17 25 36 30
10 44 30 33 28 19 18 22 15 18 22 25 18 15 18 20 19 18 17 20 19 15 15 14 13 12 11 12 11 11 10 10 9 4 5 8 11 13 16 19 16 14 12 11
22 50 36 38 39 32 26 27 22 19 20 20 22 14 10 11 9 8 7 12 14 19 12 7 6 8 10 9 9 10 10 9 9 11 7 5 4 6 7 6 12 18 24 23
46 50 53 42 38 35 32 33 31 27 23 17 13 16 14 6 13 12 12 7 10 6 6 7 7 6 5 5 6 9 8 10 11 9 8 11 12 10 9 10 12 9 8 12
52 34 41 43 41 35 29 21 20 26 28 23 20 16 13 9 3 11 14 13 10 7 4 5 10 14 5 3 7 9 13 17 18 18 18 20 19 18 17 17 18 16 14 16
43 39 40 42 45 44 32 24 22 17 20 25 22 19 17 11 9 8 11 13 14 9 8 5 7 17 14 15 16 18 20 20 20 20 21 19 20 19 20 22 21 21 18 16
52 45 42 37 52 43 33 31 23 20 19 26 28 27 22 21 20 15 16 15 15 21 23 20 18 22 23 22 20 20 21 22 22 24 27 28 28 29 29 29 29 23 25 20
54 40 33 41 48 39 39 39 32 26 25 23 21 21 19 22 32 30 25 26 24 27 26 28 28 27 25 22 23 24 25 23 21 20 21 20 22 27 27 27 24 23 30 30
53 42 41 41 43 42 45 45 42 38 32 28 24 19 16 15 16 23 37 43 34 25 23 18 25 30 28 31 34 33 31 30 27 26 24 25 21 19 28 31 30 28 26 30
52 46 48 48 44 42 45 48 44 38 31 22 17 17 18 15 13 12 13 16 19 18 23 27 33 34 37 37 39 37 37 34 33 32 33 32 30 24 23 30 34 28 27 32
48 51 54 47 41 40 47 46 41 34 30 25 20 16 13 10 9 10 13 16 16 16 15 14 18 22 25 29 34 39 40 45 51 47 44 43 43 38 34 34 34 32 27 33
56 54 47 40 37 43 49 45 38 31 27 24 19 16 12 10 12 14 15 16 12 6 2 5 9 14 19 25 29 34 38 42 43 43 44 49 50 50 44 45 46 40 32 34
53 50 40 32 36 43 49 46 38 32 26 23 21 15 12 13 10 17 15 12 3 3 4 2 9 19 21 24 30 38 44 49 50 49 49 49 52 53 53 49 47 52 48 38
51 46 44 43 44 44 44 46 46 42 38 33 24 14 8 7 6 17 8 5 4 1 9 8 15 22 20 23 33 36 37 45 53 56 59 61 59 55 54 54 51 49 56 50
50 50 48 49 48 49 53 56 56 53 48 39 34 27 18 16 17 11 12 10 5 10 10 9 17 22 25 29 41 53 42 39 41 46 51 56 58 57 59 61 61 55 55 59
45 51 56 62 65 65 66 68 62 60 49 46 38 26 21 14 19 18 18 14 8 10 13 19 21 26 26 30 42 52 43 33 35 38 40 43 45 50 48 48 54 56 57 63
Wind_Direction_850mb
235 236 113 67 8 19 73 67 183 299 171 55 54 109 80 74 83 171 201 201 205 202 206 212 214 222 224 219 225 217 217 213 218 217 221 222 220 217 220 221 228 235 239 248
148 21 104 84 18 8 65 2 168 28 82 95 73 96 76 45 33 129 188 203 203 206 214 221 222 222 227 216 204 208 211 215 213 217 227 223 222 226 232 232 229 228 236 244
274 319 273 53 340 340 172 23 269 202 298 67 73 69 54 55 44 357 188 187 201 209 207 210 211 219 216 205 203 205 207 211 221 227 232 228 226 226 241 236 237 243 241 237
247 5 205 296 57 281 54 49 59 79 87 97 91 75 59 54 68 100 117 153 194 201 199 202 214 213 209 198 192 194 217 219 227 235 246 242 229 242 255 234 241 244 237 237
113 51 317 305 288 188 201 257 271 168 140 116 117 82 40 44 53 69 120 159 143 158 156 178 175 195 210 201 192 223 230 216 232 235 242 241 247 252 252 249 236 228 232 224
116 152 205 228 262 205 178 354 279 239 174 161 162 62 328 6 75 89 111 163 186 182 201 187 206 168 252 204 232 227 225 224 225 230 233 248 244 248 250 255 242 224 235 224
156 168 271 254 230 181 160 226 164 190 129 108 98 136 146 138 120 120 124 130 166 201 187 176 195 189 209 211 215 213 223 221 251 265 267 261 249 243 247 243 239 231 234 242
102 107 247 205 169 171 223 156 141 139 104 83 116 118 116 100 96 105 105 112 145 181 191 194 196 183 206 186 185 199 193 212 253 244 240 240 235 239 237 231 231 234 237 241
176 224 287 300 250 135 166 195 155 152 132 150 141 136 128 119 113 111 107 108 114 127 140 131 142 178 187 186 198 195 195 206 228 225 249 243 236 229 220 211 214 222 221 223
93 259 251 316 107 97 106 173 168 146 150 152 141 142 135 130 129 120 110 109 110 113 115 116 120 129 169 167 172 183 188 202 205 220 219 219 232 225 217 213 225 232 230 222
271 252 211 227 144 113 114 111 138 131 132 138 139 141 133 133 127 112 98 93 94 103 111 121 129 138 142 146 150 157 178 186 189 203 202 221 225 218 220 219 217 211 198 193
212 187 166 180 140 132 125 121 141 146 128 126 128 134 136 137 122 102 93 83 79 98 112 117 122 126 129 138 151 167 187 187 216 225 227 242 252 261 254 237 219 219 211 201
195 183 183 156 148 160 140 134 143 152 141 115 118 139 153 154 138 114 96 94 86 84 89 103 122 126 130 131 136 142 157 174 191 180 252 266 270 270 275 277 274 249 235 213
207 160 153 165 158 144 153 143 148 155 139 104 91 137 165 168 158 158 168 144 108 83 81 80 113 132 150 165 170 169 179 194 196 213 214 238 303 337 342 317 282 269 268 261
175 182 181 164 154 150 145 151 163 166 162 161 162 132 148 170 217 203 205 215 177 118 123 164 180 177 163 155 199 206 200 211 228 238 242 234 238 250 277 304 319 316 318 302
174 175 172 172 169 168 171 165 167 183 188 203 198 182 171 158 163 208 208 220 229 243 250 191 182 168 130 319 287 262 228 231 239 246 247 247 249 254 260 276 289 280 296 322
166 165 178 183 180 173 178 186 203 197 190 209 208 205 209 202 213 222 221 238 250 251 266 277 253 233 275 282 273 255 243 243 244 243 239 242 251 259 262 259 266 262 270 302
197 201 201 209 188 187 191 192 199 207 196 193 204 210 214 221 230 244 238 240 257 251 248 252 255 255 270 278 270 266 264 262 255 247 247 251 256 261 267 271 266 254 241 257
201 201 197 189 190 192 192 195 199 201 191 188 194 203 216 232 240 236 231 243 247 263 266 267 270 269 267 267 274 268 270 268 258 245 243 252 260 254 259 266 264 256 241 245
193 192 193 192 196 200 200 198 189 183 182 183 188 198 211 221 231 235 240 247 251 262 255 251 265 263 266 270 270 273 269 264 264 255 248 250 257 269 259 259 265 259 246 238
189 196 199 195 193 197 203 192 187 182 178 191 206 200 196 199 198 210 223 241 247 254 254 258 258 263 266 263 266 261 270 265 263 265 262 260 256 256 268 256 253 254 256 245
194 188 185 187 188 186 191 192 194 194 192 194 196 201 210 217 219 224 229 230 238 231 234 253 265 266 265 263 268 271 260 271 271 261 259 262 263 260 253 259 257 253 262 242
188 187 192 195 198 188 185 192 200 210 209 209 212 206 217 252 260 255 225 201 190 182 213 275 281 285 287 287 285 278 272 271 271 267 261 257 258 256 257 253 252 255 253 246
195 195 201 201 193 193 191 195 204 208 216 212 210 212 247 263 210 181 175 169 163 310 305 292 342 326 314 303 292 280 272 266 265 263 263 265 252 255 256 251 249 246 246 245
205 207 207 202 202 209 210 207 203 204 204 200 195 200 159 170 188 155 143 114 117 66 351 342 349 352 341 338 345 330 299 278 267 264 263 261 260 256 255 252 250 247 243 241
212 217 223 225 228 225 215 211 211 204 199 188 174 160 161 165 163 185 175 178 229 288 303 333 332 328 331 340 345 345 325 303 286 277 270 266 262 260 258 252 249 245 241 237
224 228 230 229 227 228 222 216 208 194 183 172 170 167 170 188 212 205 208 208 273 296 293 300 304 317 320 334 345 349 343 321 308 301 283 277 267 251 253 254 250 247 237 233